SCP
0 1 1 1 1 1 1 1 1 2 2 2 2 1 1 1 1 1 1 1 1 1 1 1 1 1 1 1 1 1 1 1 1 1 1 1 0 0 0 0 0 0 0
1 1 1 1 1 1 1 1 1 2 2 2 2 1 1 1 1 1 1 1 1 1 1 1 1 1 1 1 1 1 1 1 1 1 1 0 0 0 0 0 0 0 0
1 1 1 1 2 2 2 1 1 1 2 2 2 2 1 1 1 1 1 1 1 1 1 1 1 1 1 1 1 1 1 1 1 1 1 0 0 0 1 1 1 0 0
1 1 1 1 2 2 2 2 1 1 2 2 2 2 1 1 1 1 1 1 1 1 1 1 1 1 1 1 1 1 1 1 1 1 1 0 0 1 1 1 1 1 0
1 1 1 2 2 2 2 2 2 2 2 2 2 2 1 1 1 1 1 1 1 1 1 2 2 1 1 1 1 1 1 1 1 1 0 0 0 1 1 1 1 1 0
2 2 2 2 2 2 2 2 2 2 2 2 2 2 1 1 1 1 1 1 1 1 1 1 2 1 1 1 1 1 1 1 1 0 0 0 0 1 1 1 1 1 0
2 2 2 2 2 2 2 2 2 2 2 2 2 2 1 1 1 2 2 2 1 1 1 1 1 1 1 1 1 1 1 1 1 0 0 0 1 1 1 1 1 0 0
2 2 2 3 3 3 2 2 2 3 3 3 3 2 2 1 2 2 2 2 2 2 2 2 1 1 1 1 1 1 1 1 1 0 0 0 1 1 1 1 1 0 0
2 2 2 3 3 3 2 2 2 3 3 3 3 2 2 1 2 2 2 2 2 2 2 2 2 2 2 2 1 1 1 0 0 0 0 0 1 1 1 1 1 0 0
3 2 3 3 3 3 2 2 2 2 2 3 3 2 1 1 1 1 2 2 2 2 2 2 2 2 2 2 1 1 0 0 0 0 0 0 1 1 1 1 1 0 0
3 3 2 3 3 3 2 2 1 1 2 2 2 2 1 1 1 1 1 1 2 2 2 2 1 2 2 1 1 1 0 0 0 0 0 0 0 0 1 1 1 0 0
2 2 2 3 3 2 2 2 1 1 1 2 2 2 1 1 1 1 1 1 2 2 2 1 1 1 1 1 1 1 0 0 0 0 0 0 0 0 1 1 1 0 0
2 2 2 3 3 2 2 1 1 1 1 1 1 2 1 1 1 1 1 1 1 1 1 1 1 1 1 1 1 1 0 0 0 0 0 0 1 1 1 1 1 0 0
1 1 2 2 2 2 1 1 1 1 1 1 1 1 1 1 1 1 1 1 1 1 1 1 1 1 1 0 0 0 0 0 0 0 0 0 0 1 1 1 1 0 0
1 1 1 2 1 1 1 1 1 1 1 1 1 1 1 1 1 1 1 1 1 1 1 1 1 1 1 0 0 0 0 0 0 0 0 0 0 0 1 1 0 0 0
1 0 1 1 1 1 1 1 1 1 1 1 1 1 1 1 1 1 1 1 1 1 1 1 1 0 0 0 1 0 0 0 0 0 0 0 0 0 0 0 0 0 0
0 0 0 1 1 0 1 1 1 1 1 1 1 1 1 1 1 1 1 1 1 1 1 1 0 0 0 0 0 1 0 0 0 0 0 0 0 0 0 0 0 0 0
0 0 0 0 0 0 0 0 1 1 1 1 1 0 0 0 1 1 1 1 1 1 1 0 0 0 0 0 0 0 0 0 0 0 0 0 0 0 0 0 0 0 0
0 0 0 1 0 0 0 0 1 1 1 1 0 0 0 0 0 1 1 1 1 1 1 1 0 0 0 0 0 0 0 0 0 0 0 0 0 0 0 0 0 0 0
0 0 1 1 1 0 0 0 0 0 0 0 0 0 0 0 0 1 1 1 1 1 1 0 0 0 0 0 0 0 0 0 0 0 0 0 0 0 0 0 0 0 0
0 0 1 1 1 0 0 0 0 0 0 0 0 0 0 0 1 1 1 1 1 1 1 0 0 0 0 0 0 0 0 0 0 0 0 0 0 0 0 0 0 0 0
0 0 1 1 0 0 0 0 0 0 0 0 0 0 0 0 1 1 1 1 1 1 0 0 0 0 0 0 0 0 0 0 0 0 0 0 0 0 0 0 0 0 0
0 0 1 1 0 0 0 0 0 0 0 0 0 0 0 0 1 1 1 1 1 1 0 0 0 0 0 0 0 0 0 0 0 0 0 0 0 0 0 0 0 0 0
0 0 0 1 0 0 0 0 0 0 0 0 0 0 0 0 1 1 1 1 1 0 0 0 0 0 0 0 0 0 0 0 0 0 0 0 0 0 0 0 0 0 0
0 0 0 0 0 0 0 0 0 0 0 0 0 0 0 0 0 1 1 1 0 0 0 0 0 0 0 0 0 0 0 0 0 0 0 0 0 0 0 0 0 0 0
0 0 0 0 0 0 0 0 0 0 0 0 0 0 0 0 0 1 1 1 0 0 0 0 0 0 0 0 0 0 0 0 0 0 0 0 0 0 0 0 0 0 0
Wind_Speed
1 2 2 3 4 4 4 5 5 5 5 6 7 8 9 9 9 9 10 10 9 9 10 10 10 10 11 11 12 12 12 12 12 12 11 11 12 12 12 12 11 8 13
2 2 1 2 4 4 4 4 4 4 5 5 6 6 8 9 9 9 10 9 9 9 10 10 10 10 11 11 12 12 12 12 12 11 10 9 10 12 12 12 11 8 13
1 1 1 1 3 3 3 3 4 4 4 4 5 5 6 7 9 9 9 9 9 9 9 10 10 10 11 11 11 12 12 11 11 10 9 4 6 11 12 11 11 12 12
1 1 1 2 3 4 3 3 4 4 4 4 4 5 5 6 7 8 9 9 9 8 9 10 10 10 10 10 11 11 11 11 10 9 5 3 3 9 11 11 11 12 11
0 0 1 1 3 3 3 3 3 4 4 3 3 4 5 6 6 8 9 9 9 8 9 10 10 10 10 10 11 11 10 10 9 7 4 4 3 9 11 11 11 11 11
1 1 1 1 1 2 3 3 3 4 4 4 3 4 5 5 6 7 7 8 9 9 9 10 10 11 10 10 10 10 10 10 8 5 4 3 3 9 11 11 11 11 12
2 2 1 1 0 1 2 2 3 4 4 4 4 4 5 5 6 6 7 7 8 9 9 10 10 11 11 10 11 10 11 10 6 4 3 3 4 10 11 12 12 11 12
1 1 1 1 1 0 1 2 2 4 4 4 4 3 4 5 5 6 7 7 8 9 9 9 10 10 10 11 11 11 10 9 7 5 4 3 6 10 10 11 10 10 11
1 1 1 1 1 1 1 1 2 2 4 4 4 3 3 3 4 5 6 7 8 8 8 9 9 10 10 10 10 10 10 9 5 3 4 2 6 9 10 10 10 10 10
2 1 1 2 1 1 0 1 2 2 3 3 3 3 3 2 3 4 5 6 7 7 8 8 8 9 10 10 10 10 9 7 4 3 2 3 7 8 9 9 9 9 10
3 2 1 1 1 1 1 1 1 1 2 2 2 3 3 1 2 2 4 5 6 7 7 7 8 9 9 9 10 9 7 3 3 2 2 5 7 8 8 9 9 9 9
3 2 1 1 1 1 1 1 1 1 0 1 1 2 1 1 1 2 4 5 6 6 7 7 8 8 7 4 6 7 3 4 3 2 2 6 7 8 8 8 8 8 9
3 3 2 2 1 1 0 0 0 1 0 1 2 2 2 1 2 2 2 3 3 4 4 5 5 3 3 3 3 3 4 3 2 1 2 6 6 7 7 7 8 9 8
3 4 3 2 1 1 1 0 1 0 0 0 1 2 2 1 2 2 2 2 2 2 3 3 3 3 4 4 4 4 4 3 2 1 2 6 6 6 7 8 9 8 8
4 4 3 2 2 2 1 1 1 1 1 0 1 2 3 2 2 2 2 2 2 2 3 3 4 4 4 4 4 4 4 4 3 3 2 6 6 6 7 7 8 8 8
5 4 3 3 3 2 2 2 2 1 1 0 1 1 2 2 3 3 3 3 3 3 3 3 4 4 3 3 4 4 4 3 4 3 3 3 5 5 6 6 6 7 7
4 3 3 3 2 2 2 2 2 2 1 1 0 1 2 2 3 3 3 3 3 3 4 3 4 4 4 4 4 4 3 3 3 3 3 2 2 4 6 5 5 6 6
3 3 3 2 2 2 2 2 2 2 2 1 0 1 1 2 2 3 3 3 3 3 3 4 4 3 3 3 3 3 2 2 3 3 3 2 2 2 3 5 5 5 5
2 2 2 2 2 2 1 2 2 2 2 1 1 1 1 2 2 2 3 3 4 4 3 4 3 3 4 3 3 3 2 2 2 3 3 2 2 2 2 3 5 5 5
1 1 1 1 1 1 1 1 1 2 1 1 1 1 1 1 2 3 2 3 3 4 3 3 4 3 3 4 4 3 2 2 2 2 2 2 2 2 2 2 2 2 4
0 0 1 0 0 1 1 1 1 1 1 1 1 1 1 1 2 3 3 3 3 3 4 5 4 4 3 3 3 3 2 2 1 1 1 1 2 2 2 2 2 1 1
1 1 1 1 1 1 1 1 1 2 1 1 1 1 1 1 2 3 4 3 3 3 4 4 4 3 2 2 3 3 1 1 0 0 1 1 1 1 1 2 2 2 1
1 1 1 1 1 1 2 2 2 2 2 1 1 1 1 1 2 2 3 3 3 3 4 5 4 4 3 1 1 3 4 3 1 0 1 1 2 1 1 1 2 2 2
1 1 1 1 1 1 2 3 3 2 2 2 1 1 1 1 2 3 3 3 4 3 4 5 4 3 4 3 1 1 1 3 3 1 1 1 2 2 2 2 2 1 2
1 0 0 1 1 1 2 3 3 2 2 2 2 2 1 1 2 3 3 3 4 3 4 4 4 4 3 3 2 1 1 1 1 3 2 1 1 1 2 2 2 2 2
1 0 0 1 1 1 1 2 3 3 3 3 3 2 2 1 1 2 2 2 3 3 4 4 4 4 3 3 2 2 2 2 2 2 2 2 2 1 1 1 2 2 2
Wind_Direction
280 272 258 153 135 126 120 114 107 109 113 120 125 131 135 136 135 136 134 131 125 123 120 118 116 116 115 112 110 109 107 103 99 95 95 97 99 99 95 91 86 80 86
236 250 239 154 147 140 131 121 116 109 113 120 126 133 139 143 142 141 139 135 131 127 124 121 118 118 119 116 113 111 109 104 100 94 90 93 98 100 100 97 95 92 91
212 205 189 152 153 149 141 134 132 124 121 127 134 137 140 145 149 147 143 139 135 131 129 124 120 119 118 118 116 113 111 107 102 95 88 81 100 105 105 102 99 95 94
186 182 191 158 148 148 149 150 145 145 135 136 145 148 147 147 148 152 148 144 139 136 134 129 123 121 119 120 120 118 116 111 104 95 81 77 95 110 109 105 102 99 96
54 20 258 142 144 145 154 158 166 168 157 146 155 164 158 155 155 152 151 149 146 141 137 132 127 126 124 123 124 123 120 115 103 91 83 77 84 110 107 104 103 100 97
6 357 329 78 141 149 155 167 177 179 172 160 161 171 169 164 159 154 148 149 146 142 139 137 133 130 129 129 129 126 122 115 100 91 86 84 91 111 108 105 103 100 96
3 354 340 38 105 156 164 171 186 185 177 172 165 177 181 170 160 154 147 146 146 144 143 141 139 136 133 132 130 127 120 114 104 98 92 89 104 112 110 106 104 100 95
29 7 10 14 6 242 190 203 208 197 182 178 175 172 176 175 163 160 155 147 147 147 148 144 140 138 133 131 130 126 121 115 108 104 97 94 110 114 110 107 105 101 98
20 27 6 0 355 354 312 273 248 220 199 185 178 170 154 152 161 164 158 155 153 153 151 144 139 140 137 131 128 123 120 113 106 105 106 104 115 115 113 111 108 104 102
353 6 3 10 350 332 290 301 274 244 216 194 174 149 144 151 161 166 158 154 153 153 150 145 138 136 134 131 126 120 116 109 105 102 100 115 118 118 118 117 112 109 104
333 331 333 349 343 336 328 338 326 280 216 174 167 141 124 140 151 156 157 150 143 141 143 143 136 129 123 124 123 116 105 104 110 101 106 122 121 118 118 118 117 113 109
288 289 276 261 260 281 294 357 336 327 230 158 148 138 118 118 125 122 128 137 137 135 131 128 124 121 107 105 112 109 99 104 104 104 113 125 128 123 119 118 118 118 115
256 275 278 266 243 219 244 264 352 331 320 151 142 138 122 111 116 110 113 117 118 115 108 106 96 92 102 108 106 106 106 103 97 91 100 115 124 127 125 124 122 120 116
254 259 263 257 225 213 192 189 179 206 257 146 141 142 136 133 131 127 125 120 114 113 109 103 99 93 98 105 112 111 107 104 95 83 87 100 107 121 128 129 125 121 119
250 249 247 244 222 210 179 189 176 196 192 202 135 149 148 149 157 140 136 130 126 119 122 120 115 112 108 106 107 112 111 104 97 86 74 88 93 104 118 130 131 127 123
249 247 241 237 222 203 183 179 185 178 185 181 162 150 152 155 161 147 143 140 135 130 130 126 129 125 116 112 108 109 112 112 103 96 81 72 78 95 106 124 132 132 129
246 242 229 229 217 206 188 185 182 174 174 154 123 157 152 141 157 155 151 148 144 133 123 118 114 112 114 109 105 106 105 106 108 102 90 73 61 71 90 102 122 131 134
253 244 236 224 207 212 203 181 169 174 164 138 122 135 143 141 141 155 153 153 144 133 127 128 125 114 115 119 111 101 99 106 107 107 98 87 74 63 75 88 97 111 121
256 252 240 216 206 204 196 167 165 161 149 140 143 127 130 145 142 148 156 149 145 136 132 137 128 128 129 121 109 92 87 97 105 109 106 101 91 81 70 76 79 85 96
267 255 255 225 199 159 117 108 126 124 128 125 133 129 134 152 146 136 136 144 146 138 136 133 132 118 128 127 107 84 65 74 90 115 129 117 105 97 91 84 79 71 81
351 198 222 219 153 122 123 141 151 159 152 130 127 126 132 154 158 141 140 144 149 150 151 142 130 123 114 123 104 84 45 58 86 104 120 122 121 119 112 108 102 93 73
258 230 199 198 163 152 159 156 152 145 149 143 126 107 119 140 157 142 146 155 159 145 142 144 138 130 131 144 130 123 115 29 348 112 147 165 164 144 137 128 124 117 100
279 251 223 202 184 174 146 121 108 94 80 83 101 106 112 144 146 136 149 151 156 159 162 159 159 148 152 163 146 146 156 187 204 284 211 192 183 174 175 144 138 135 129
273 263 229 203 180 162 149 147 152 153 161 172 159 140 126 134 136 127 146 160 157 158 165 168 163 152 152 161 134 80 124 144 152 162 284 233 200 197 197 178 161 166 155
269 205 202 162 156 157 159 164 162 160 158 136 128 125 119 100 121 120 140 160 161 159 168 169 159 155 157 162 161 140 100 65 121 147 186 236 256 228 208 189 175 183 179
22 49 108 148 161 150 149 156 161 159 156 148 148 149 144 141 108 111 128 147 156 158 169 173 166 164 166 162 158 155 152 154 172 156 169 198 225 253 224 200 189 194 190